Date,TemperatureHighF,TemperatureAvgF,TemperatureLowF,DewpointHighF,DewpointAvgF,DewpointLowF,HumidityHigh,HumidityAvg,HumidityLow,PressureMaxIn,PressureMinIn,WindSpeedMaxMPH,WindSpeedAvgMPH,GustSpeedMaxMPH,PrecipitationSumIn
2013-2-1,29.6,26.7,22.7,17.0,9.5,4.0,67,49,37,30.19,29.82,11,4,0,0.00
2013-2-2,29.1,24.1,18.1,19.0,11.8,7.0,88,61,40,30.30,30.10,5,1,0,0.00
2013-2-3,30.6,25.1,16.7,19.0,17.2,15.0,92,73,57,30.00,29.81,5,0,0,0.01
2013-2-4,29.6,26.1,21.6,12.0,10.6,9.0,65,52,44,29.98,29.90,11,2,0,0.00
2013-2-5,29.4,26.8,23.7,25.0,22.9,21.0,90,85,77,30.01,29.93,4,0,0,0.00
2013-2-6,36.6,31.8,25.3,27.0,19.7,7.0,95,63,42,30.35,30.00,9,3,0,0.01
2013-2-7,31.5,27.3,21.4,15.0,10.8,8.0,69,50,40,30.54,30.43,4,0,0,0.00
2013-2-8,30.9,29.5,25.6,30.0,27.9,24.0,96,93,88,30.16,29.66,11,4,0,0.00
2013-2-9,29.0,25.7,21.1,24.0,13.3,5.0,94,62,39,30.33,29.84,17,7,0,0.00
2013-2-10,35.8,26.3,10.1,13.0,5.4,1.0,69,43,25,30.50,30.38,6,1,0,0.00
2013-2-11,41.1,37.4,30.8,40.0,36.5,30.0,97,96,94,30.10,29.69,2,0,0,0.11
2013-2-12,41.8,39.7,37.1,30.0,27.8,25.0,72,63,59,29.97,29.83,11,2,0,0.00
2013-2-13,42.0,36.0,26.2,31.0,26.0,23.0,94,68,51,29.93,29.71,4,0,0,0.00
2013-2-14,42.9,35.7,27.1,31.0,28.1,26.0,96,75,58,30.01,29.85,6,1,0,0.02
2013-2-15,52.4,45.6,37.5,36.0,34.2,32.0,86,66,46,30.02,29.92,5,1,0,0.00
2013-2-16,36.0,32.9,29.8,29.0,22.2,17.0,90,66,58,29.98,29.83,10,3,0,0.02
2013-2-17,29.2,24.1,15.9,7.0,4.1,2.0,55,43,34,29.94,29.65,16,8,0,0.00
2013-2-18,32.7,28.0,18.0,13.0,9.1,5.0,58,46,37,30.23,30.18,7,3,0,0.00
2013-2-19,44.1,38.7,23.2,40.0,33.9,19.0,96,84,60,30.09,29.69,6,1,0,0.26
2013-2-20,31.2,28.5,24.2,22.0,14.7,11.0,77,57,48,29.94,29.77,14,5,0,0.00
2013-2-21,31.7,28.5,24.8,16.0,14.7,13.0,67,57,51,30.29,29.99,11,5,0,0.00
2013-2-22,38.1,32.3,22.7,28.0,23.2,18.0,81,70,56,30.44,30.32,5,1,0,0.00
2013-2-23,39.2,36.5,34.5,38.0,34.8,31.0,96,93,87,30.20,29.85,5,0,0,0.04
2013-2-24,42.3,37.8,32.5,37.0,32.7,28.0,97,82,68,29.95,29.76,9,3,0,0.01
2013-2-25,42.9,38.4,26.6,29.0,27.6,23.0,88,66,54,30.26,30.09,9,2,0,0.00
2013-2-26,41.3,34.6,26.6,32.0,28.2,24.0,92,78,60,30.33,29.99,7,1,0,0.11
2013-2-27,44.7,40.4,34.1,43.0,38.9,32.0,100,94,92,29.98,29.51,9,2,0,0.80
2013-2-28,47.4,41.1,32.7,41.0,35.1,32.0,98,80,62,29.63,29.55,2,0,0,0.01